Moses Lake, WA
on Saturday, November 3, 2012

Saturday
Previous Day Next Day
Daily Summary
 ActualAverageRecord
Temperature
Mean Temperature °F 42°F  
Max Temperature 55°F 53°F 63°F (2010)
Min Temperature 43°F 32°F 12°F (2002)
Degree Days
Heating Degree Days 16 23  
Month to date heating degree days 48 67  
Since 1 July heating degree days 573 704  
Cooling Degree Days 0 0  
Month to date cooling degree days 0 0  
Year to date cooling degree days 719 615  
Moisture
Dew Point 44°F   
Average Humidity 81    
Maximum Humidity 89    
Minimum Humidity 72    
Precipitation
Precipitation 0.06 in 0.03 in 0.23 in (2005)
Month to date precipitation 0.08 0.10  
Year to date precipitation 6.68 6.57  
Wind
Wind Speed 5 mph   
Max Wind Speed 15 mph   
Max Gust Speed 16 mph   
Visibility 7 miles   
Events Rain   

Key: T is trace of precipitation, MM is missing value
Source: NWS Daily Summary
Time(PDT)TemperatureDew PointHumidity Pressure Visibility Wind DirectionWind SpeedGust SpeedPrecipitationEvents Conditions
12:52 AM 46.0°F 42.1°F 86% 30.04 in 10.0 miles NNW 5.8 mph - N/A   Clear
1:52 AM 45.0°F 41.0°F 86% 30.04 in 10.0 miles Calm Calm - N/A   Clear
2:52 AM 44.1°F 39.9°F 85% 30.04 in 9.0 miles NNE 3.5 mph - N/A   Mostly Cloudy
3:52 AM 44.1°F 39.9°F 85% 30.04 in 8.0 miles Calm Calm - N/A   Mostly Cloudy
4:38 AM 44.6°F 41.0°F 87% 30.03 in 8.0 miles Calm Calm - N/A   Overcast
4:52 AM 44.1°F 39.9°F 85% 30.04 in 8.0 miles North 3.5 mph - N/A   Overcast
5:49 AM 44.6°F 41.0°F 87% 30.04 in 5.0 miles Calm Calm - 0.01 in Rain Light Rain
5:52 AM 45.0°F 41.0°F 86% 30.20 in 5.0 miles Calm Calm - 0.01 in Rain Light Rain
6:52 AM 45.0°F 41.0°F 86% 30.21 in 5.0 miles Calm Calm - 0.03 in Rain Light Rain
7:31 AM 44.6°F 41.0°F 87% 30.05 in 4.0 miles Calm Calm - 0.01 in   Overcast
7:52 AM 45.0°F 41.0°F 86% 30.22 in 3.0 miles SSE 3.5 mph - 0.01 in   Overcast
7:59 AM 44.6°F 41.0°F 87% 30.05 in 2.0 miles Calm Calm - N/A   Overcast
8:22 AM 44.6°F 42.8°F 93% 30.05 in 2.0 miles SE 3.5 mph - N/A   Overcast
8:36 AM 44.6°F 42.8°F 93% 30.05 in 3.0 miles Calm Calm - N/A   Overcast
8:52 AM 46.0°F 43.0°F 89% 30.22 in 4.0 miles Calm Calm - 0.00 in Rain Light Rain
9:52 AM 46.9°F 43.0°F 86% 30.09 in 5.0 miles South 3.5 mph - 0.00 in Rain Light Rain
10:38 AM 48.2°F 44.6°F 87% 30.08 in 4.0 miles South 4.6 mph - 0.01 in   Overcast
10:52 AM 48.9°F 45.0°F 86% 30.09 in 6.0 miles SSE 5.8 mph - 0.01 in   Overcast
10:59 AM 48.2°F 44.6°F 87% 30.08 in 6.0 miles South 5.8 mph - N/A   Overcast
11:52 AM 50.0°F 46.0°F 86% 30.09 in 7.0 miles South 5.8 mph - N/A   Mostly Cloudy
12:52 PM 51.1°F 45.0°F 80% 30.09 in 9.0 miles South 6.9 mph - N/A   Mostly Cloudy
1:52 PM 53.1°F 46.0°F 77% 30.07 in 7.0 miles South 8.1 mph - N/A   Mostly Cloudy
2:09 PM 53.6°F 46.4°F 77% 30.06 in 7.0 miles SSW 8.1 mph - N/A   Scattered Clouds
2:52 PM 54.0°F 46.0°F 75% 30.08 in 8.0 miles South 9.2 mph - N/A   Scattered Clouds
3:52 PM 55.0°F 46.0°F 72% 30.08 in 9.0 miles South 6.9 mph - N/A   Clear
4:52 PM 54.0°F 46.9°F 77% 30.08 in 9.0 miles South 9.2 mph - N/A   Clear
5:52 PM 54.0°F 46.9°F 77% 30.09 in 10.0 miles South 10.4 mph - N/A   Clear
6:52 PM 54.0°F 46.9°F 77% 30.09 in 10.0 miles South 11.5 mph - N/A   Clear
7:52 PM 53.1°F 46.9°F 80% 30.11 in 10.0 miles South 5.8 mph - N/A   Partly Cloudy
8:52 PM 52.0°F 46.9°F 83% 30.12 in 10.0 miles South 8.1 mph - N/A   Overcast
9:52 PM 54.0°F 46.0°F 75% 30.12 in 10.0 miles South 9.2 mph - N/A   Mostly Cloudy
10:52 PM 55.0°F 46.0°F 72% 30.14 in 10.0 miles SSW 10.4 mph - N/A   Overcast
11:52 PM 54.0°F 46.0°F 75% 30.15 in 10.0 miles SSW 5.8 mph - N/A   Overcast
Moon Phase
Nov. 03 Nov. 06 Nov. 13 Nov. 20 Nov. 28
Sunrise:07:44 AM (PDT) Moon Rise:09:16 PM (PDT)11/3
Sunset:05:36 PM (PDT) Moon Set:11:58 AM (PDT)11/3

Copyright © 2014 The Weather Underground, Inc.